COSMOS 1275 DEB

Satellite information

Favourite Embed

Satellite Type and Status

DEBRISIN ORBIT

Key statistics

Satellite COSMOS 1275 DEB at a glance.

Uptime

16106

Days in orbit

Revolutions

≈ 14.9

Per day

Orbit

LEO

Low Earth Orbit

Inclination

82.9

Latest

Satellite identification and parameters

Extended collection of information and parameters for COSMOS 1275 DEB.

Object identification

Identified? True

Debris? True

Object name: COSMOS 1275 DEB

International designator: 1981-053GH

Object number (NORAD): 13487

Object ID (CCSDS): 13487

Country: COMMONWEALTH OF INDEPENDENT STATES (CIS)

Current information (Y/N): Y

RCS size: SMALL

Orbital parameters

Period: 96.575 minutes

Inclination: 82.9348 deg

SMA: 6972.756 km

Apoapsis: 610.044 km

Periapsis: 579.197 km

RAAN: 86.3766 deg

Eccentricy: 0.002212

Argument of periapsis: 300.9823 deg

Mean anomaly: 112.9159 deg

Mean motion: 14.9106337 rev/day

Mean motion (dot): 0.00027907 rev/day2

B* drag term: 0.0027957 1/REarth

Two-line elements (TLE)

Creation date: July 9, 2025, 2:22 a.m.

Reference frame: TEME

Reference center: EARTH

Epoch: July 8, 2025, 5:51 p.m. UTC

TLE line 0: 0 COSMOS 1275 DEB

TLE line 1: 1 13487U 81053GH 25189.74397161 .00027907 00000-0 27957-2 0 9990

TLE line 2: 2 13487 82.9348 86.3766 0022120 300.9823 112.9159 14.91063370198467

Live tracking on map

Real-time ground track for satellite COSMOS 1275 DEB.

In-orbit conjunctions

A list of the most updated potential collisions computed for object COSMOS 1275 DEB.

Target Orbit TCA Probability of collision Miss distance Type
DELTA 1 R/B SSO 2024-12-11 14:41:25 0.0002177296 344.0 (m) ROCKET BODY

Associated space launch

Navigation satellite providing location information for the Tsiklon-B navigation system

COSMOS 1275 DEB was lifted into orbit during the mission ‘Kosmos-3M | Parus 27’, on board a Kosmos-3M space rocket.

The launch took place on June 4, 1981, 3:41 p.m. from 132/2.

For more information about the launch, click the button.

Launch to space Kosmos-3M | Parus 27
Kosmos-3M | Parus 27

Agency: N/A

Status: Launch Successful

Launch date: June 4, 1981, 3:41 p.m. UTC

Rocket: Kosmos-3M

Launch pad: 132/2

Location: Plesetsk Cosmodrome, Russian Federation

...

Latest news about this satellite

There are no fresh news available about this satellite. Check back as we update our databases every day.


Newsletter sign-up

Weekly statistics, charts and insights to help you stay on top of the space industry.